Flag for Germany Weather past 2 weeks in Gevelsberg, North Rhine-Westphalia, Germany

Now
59 °F

Scattered showers. Clear.


Feels Like: 57 °F
Forecast: 52 / 63 °F
Wind: 13 mph from Southwest

Location: Dortmund / Wickede

Current Time: May 3, 2015 at 11:13:05 PM

Latest Report: May 3, 2015 at 10:20 PM


Visibility: N/A

Pressure: 29.62 "Hg

Humidity: 88%

Dew point: 55 °F

Location of GevelsbergLocation

Historic Weather in Gevelsberg — Graph

°F

Gevelsberg temperature yesterday

Maximum temperature yesterday: 61 °F (at 4:20 PM)
Minimum temperature yesterday: 36 °F (at 6:20 AM)
Average temperature yesterday: 52 °F

Past Weeks' High & Low Weather Summary

 TemperatureHumidityPressure
High70 °F (Apr 21, 3:50 PM)94% (Apr 27, 5:20 AM)30.45 "Hg (Apr 27, 5:20 AM)
Low30 °F (Apr 28, 5:20 AM)18% (Apr 21, 4:50 PM)29.59 "Hg (May 3, 3:50 PM)
Average51 °F63%29.98 "Hg
* Reported Apr 18 9:20 PM — May 3 9:50 PM, Gevelsberg, Weather by CustomWeather, © 2015

Note: Actual official high and low records may vary slightly from our data, if they occured in-between our weather recording intervals... More about our weather records

Advertising

Gevelsberg weather history for previous 24 hours

 ConditionsComfort  
Time TempWeatherWind HumidityBarometerVisibility
9:50 PM
Sun, May 3
59 °FScattered showers. Scattered clouds.10 mph82%29.59 "HgN/A
9:20 PM59 °FScattered clouds.9 mph88%29.59 "HgN/A
8:50 PM59 °FPartly sunny.8 mph88%29.59 "HgN/A
8:20 PM59 °FPartly sunny.8 mph88%29.59 "HgN/A
7:50 PM59 °FScattered showers. Partly sunny.10 mph88%29.59 "HgN/A
7:20 PM57 °FDrizzle. Overcast.8 mph94%29.59 "HgN/A
6:50 PM59 °FDrizzle. Overcast.8 mph88%29.59 "Hg5 mi
6:20 PM59 °FDrizzle. Overcast.9 mph88%29.59 "Hg6 mi
5:50 PM59 °FLight rain. Partly sunny.8 mph88%29.59 "HgN/A
5:20 PM57 °FLight rain. Partly sunny.9 mph88%29.59 "Hg6 mi
4:50 PM57 °FScattered showers. Partly sunny.8 mph88%29.59 "Hg5 mi
4:20 PM59 °FLight rain. Partly sunny.13 mph77%29.59 "Hg4 mi
3:50 PM61 °FScattered showers. Partly sunny.10 mph72%29.59 "HgN/A
3:20 PM61 °FPartly sunny.10 mph68%29.62 "HgN/A
2:50 PM61 °FPartly sunny.10 mph68%29.62 "HgN/A
2:20 PM61 °FPartly sunny.14 mph68%29.62 "HgN/A
1:50 PM59 °FPartly sunny.14 mph68%29.62 "HgN/A
1:20 PM61 °FPartly sunny.13 mph63%29.62 "HgN/A
12:50 PM61 °FPartly sunny.10 mph63%29.62 "HgN/A
12:20 PM61 °FPartly sunny.13 mph63%29.62 "HgN/A
11:50 AM63 °FScattered clouds.15 mph59%29.62 "HgN/A
11:20 AM61 °FPartly sunny.12 mph63%29.65 "HgN/A
10:50 AM61 °FBroken clouds.9 mph63%29.65 "HgN/A
10:20 AM59 °FPassing clouds.5 mph59%29.65 "HgN/A
9:50 AM55 °FSunny.5 mph63%29.68 "Hg10 mi
9:20 AM55 °FClear.6 mph63%29.68 "HgN/A
8:50 AM52 °FSunny.8 mph67%29.68 "Hg10 mi
8:20 AM48 °FSunny.3 mph76%29.68 "Hg10 mi
7:50 AM46 °FSunny.3 mph76%29.71 "Hg10 mi
7:20 AM45 °FSunny.3 mph81%29.71 "Hg10 mi
6:50 AM45 °FClear.5 mph76%29.71 "Hg10 mi
6:20 AM45 °FClear.7 mph76%29.71 "Hg10 mi
5:50 AM45 °FClear.6 mph76%29.71 "Hg10 mi
5:20 AM45 °FClear.7 mph76%29.71 "Hg10 mi
Weather by CustomWeather, © 2015

See weather overviewHow to use our weather pages